User: anonymous
Location: Voyageurs National Park
(48.5020°N, 92.9292°W)
Time: 03:25:56
(UTC-05:00)
Language:

Terra - Orbit

View from above orbital plane
View from above orbital plane
View from above satellite
View from above satellite

Ground track
Ground track

The orbit data is extracted from the following two-line orbital elements,

1 25994U 99068A   14114.81427755  .00000764  00000-0  17957-3 0  1745
2 25994 098.2137 190.2794 0001553 108.7970 251.3353 14.57139861763293
Epoch (UTC): 24 April 2014 19:32:33
Eccentricity: 0.0001553
inclination: 98.2137°
perigee height: 701 km
apogee height: 703 km
right ascension of ascending node: 190.2794°
argument of perigee: 108.7970°
revolutions per day: 14.57139861
mean anomaly at epoch: 251.3353°
orbit number at epoch: 76329

The dashed part of the orbit path shows where the satellite is in the earth's shadow,  

DLR